Miramar MCAS, CA

8:29 AM PDT on April 27, 2017 (GMT -0700)
Miramar Marine Corps Air Station-Mitscher

Weather History for KNKX - December, 2012

Change the Weather History Date:

Friday, December 28, 2012

  Actual Average Record
Temperature  
Mean Temperature 52 °F -  
Max Temperature 64 °F 64 °F 79 °F (2016)
Min Temperature 41 °F 43 °F 35 °F (2003)
Degree Days  
Heating Degree Days 12    
Growing Degree Days 2 (Base 50)    
Moisture  
Dew Point 34 °F    
Average Humidity 58    
Maximum Humidity 82    
Minimum Humidity 19    
Precipitation  
Precipitation 0.00 in - - ()
Sea Level Pressure  
Sea Level Pressure 30.10 in    
Wind  
Wind Speed 6 mph (ENE)    
Max Wind Speed 9 mph    
Max Gust Speed -    
Visibility 10 miles    
Events      
Averages and records for this station are not official NWS values.
T = Trace of Precipitation, MM = Missing Value Source: NWS Daily Summary

Daily Weather History Graph

Daily Weather History Graph

Search for Another Location

Airport or City:

Trip Planner

Search our weather history database for the weather conditions in past years. The results will help you decide how hot, cold, wet, or windy it might be!

Date:

Astronomy

Dec. 28, 2012 Rise Set
Actual Time 6:50 AM PST 4:50 PM PST
Civil Twilight 6:23 AM PST 5:18 PM PST
Nautical Twilight 5:52 AM PST 5:48 PM PST
Astronomical Twilight 5:22 AM PST 6:18 PM PST
Moon 5:28 PM PST (12/28) 6:50 AM PST (12/28)
Length of Visible Light 10h 54m
Length of Day
10h 00m
Full, 100% of the Moon is Illuminated
Dec 28
Full
Jan 4
Last Quarter
Jan 11
New
Jan 18
First Quarter
Jan 26
Full

Hourly Weather History & Observations

Time (PST) Temp. Windchill Dew Point Humidity Pressure Visibility Wind Dir Wind Speed Gust Speed Precip Events Conditions
12:55 AM 45.0 °F 41.2 °F 39.0 °F 80% 30.10 in 10.0 mi East 6.9 mph - N/A   Clear
1:55 AM 45.0 °F 40.6 °F 39.0 °F 80% 30.10 in 10.0 mi East 8.1 mph - N/A   Clear
2:55 AM 44.1 °F 40.1 °F 37.9 °F 79% 30.10 in 10.0 mi ENE 6.9 mph - N/A   Clear
3:55 AM 44.1 °F 39.5 °F 37.9 °F 79% 30.09 in 10.0 mi ENE 8.1 mph - N/A   Clear
4:55 AM 43.0 °F 38.8 °F 37.0 °F 80% 30.09 in 10.0 mi ENE 6.9 mph - N/A   Clear
5:55 AM 42.1 °F 38.4 °F 36.0 °F 79% 30.11 in 10.0 mi NE 5.8 mph - N/A   Clear
6:55 AM 41.0 °F 38.0 °F 36.0 °F 82% 30.13 in 7.0 mi ENE 4.6 mph - N/A   Clear
7:55 AM 48.0 °F - 37.9 °F 68% 30.13 in 2.5 mi East 6.9 mph - N/A   Haze
8:55 AM 55.0 °F - 39.0 °F 55% 30.15 in 10.0 mi East 4.6 mph - N/A   Clear
9:55 AM 59.0 °F - 34.0 °F 39% 30.14 in 10.0 mi Calm Calm - N/A   Clear
10:55 AM 61.0 °F - 30.9 °F 32% 30.12 in 10.0 mi Calm Calm - N/A   Clear
11:55 AM 64.9 °F - 21.9 °F 19% 30.09 in 10.0 mi Variable 5.8 mph - N/A   Partly Cloudy
12:55 PM 63.0 °F - 30.0 °F 29% 30.07 in 10.0 mi WNW 9.2 mph - N/A   Partly Cloudy
1:55 PM 63.0 °F - 30.0 °F 29% 30.06 in 10.0 mi NW 9.2 mph - N/A   Partly Cloudy
2:55 PM 63.0 °F - 26.1 °F 25% 30.05 in 10.0 mi WNW 9.2 mph - N/A   Partly Cloudy
3:55 PM 59.0 °F - 30.9 °F 35% 30.06 in 10.0 mi WNW 6.9 mph - N/A   Partly Cloudy
4:55 PM 54.0 °F - 35.1 °F 49% 30.07 in 10.0 mi WNW 4.6 mph - N/A   Partly Cloudy
5:55 PM 48.9 °F - 37.9 °F 66% 30.08 in 10.0 mi West 4.6 mph - N/A   Partly Cloudy
6:55 PM 46.9 °F - 36.0 °F 66% 30.10 in 10.0 mi SE 3.5 mph - N/A   Partly Cloudy
7:55 PM 44.1 °F 42.5 °F 36.0 °F 73% 30.10 in 10.0 mi East 3.5 mph - N/A   Partly Cloudy
8:55 PM 43.0 °F 40.3 °F 35.1 °F 74% 30.10 in 10.0 mi East 4.6 mph - N/A   Partly Cloudy
9:55 PM 46.9 °F - 35.1 °F 63% 30.10 in 10.0 mi East 8.1 mph - N/A   Clear
10:55 PM 48.9 °F - 34.0 °F 56% 30.09 in 10.0 mi East 8.1 mph - N/A   Partly Cloudy
11:55 PM 48.0 °F - 33.1 °F 56% 30.07 in 10.0 mi East 8.1 mph - N/A   Partly Cloudy